Regional Weather Roundup
Issued by NWS

Home | Current Version | Previous Version | Text Only | Print | Product List | Glossary Off
Versions: 1 2 3 4 5 6 7 8 9 10 11 12 13 14 15 16 17 18 19 20 21 22 23 24 25 26 27 28 29 30 31 32 33 34 35 36 37 38 39 40 41 42 43 44 45 46 47 48 49 50

098
ASUS44 KLIX 030110
RWRLA
LOUISIANA WEATHER ROUNDUP
NATIONAL WEATHER SERVICE NEW ORLEANS LA
700 PM CST MON MAR 02 2015

NOTE: "FAIR" INDICATES FEW OR NO CLOUDS BELOW 12,000 FEET WITH NO
      SIGNIFICANT WEATHER AND/OR OBSTRUCTIONS TO VISIBILITY.
      SKY/WX - SKY CONDITION AND SIGNIFICANT WEATHER.
      TMP - AIR TEMPERATURE.    DP   - DEWPOINT TEMPERATURE.
      RH  - RELATIVE HUMIDITY.  PRES - PRESSURE.
      HX  - HEAT INDEX.         WCI  - WIND CHILL INDEX.

*  THESE STATIONS ARE NOT NWS OR FAA STATIONS AND ARE NOT UNDER
   NWS QUALITY CONTROL.

LAZ040-048-061>063-065-066-069-030200-
SOUTHEAST LOUISIANA

CITY           SKY/WX    TMP DP  RH WIND       PRES   REMARKS
N.O. AUDUBON     N/A     67  70 100 MISG        N/A
N.O. INTL ARPT MOCLDY    70  66  87 E7        30.18S
N.O. LAKEFRONT MOCLDY    68  64  87 SE7       30.19S
SLIDELL        CLOUDY    68  67  96 SE3       30.19R
BATON ROUGE    CLOUDY    61  60  97 N3        30.20R FOG
BOOTHVILLE     PTCLDY    71  68  90 SE5       30.20S
BELLE CHASSE   MOCLDY    67  64  90 E5        30.18S
BOGALUSA*        N/A     66  63  89 CALM      30.21S
GALLIANO*      PTCLDY    73  68  87 CALM      30.19S
NEW ROADS*     CLOUDY    50  49  97 NW6       30.21S
GONZALES*      CLOUDY    68  68 100 CALM      30.18S FOG
HAMMOND*       NOT AVBL
HOUMA*         PTCLDY    70  69  95 S3        30.17S
PORT FOURCHON* PTCLDY    70  68  94 SE7       30.22S FOG

$$

LAZ041-044-053-054-030200-
SOUTHWEST LOUISIANA

CITY           SKY/WX    TMP DP  RH WIND       PRES   REMARKS
LAKE CHARLES   CLOUDY    56  55  97 NE8       30.18S FOG
LAFAYETTE      CLOUDY    54  53  97 N8        30.20S FOG
PATTERSON      PTCLDY    70  66  88 W5        30.19R
SALT POINT       N/A     67  67 100 CALM      30.16S
NEW IBERIA     FOG       58  56  93 N7        30.20S VSB 1/2
CHENAULT AIRPK NOT AVBL

$$

LAZ027-028-030200-
CENTRAL LOUISIANA

CITY           SKY/WX    TMP DP  RH WIND       PRES   REMARKS
FORT POLK      CLOUDY    49  48  98 VRB3      30.20S FOG
ALEXANDRIA INT CLOUDY    46  46 100 N5        30.22S FOG
ALEXANDRIA     CLOUDY    46  45  96 NE3       30.24S

$$

LAZ001-002-030200-
NORTHWEST LOUISIANA

CITY           SKY/WX    TMP DP  RH WIND       PRES   REMARKS
SHREVEPORT     CLOUDY    43  41  93 E8        30.23S
BARKSDALE AFB  CLOUDY    42  42 100 CALM      30.23F
DTN SHREVEPORT CLOUDY    41  39  93 NE5       30.24S

$$

LAZ014-016-030200-
NORTHEAST LOUISIANA

CITY           SKY/WX    TMP DP  RH WIND       PRES   REMARKS
MONROE         CLOUDY    40  40 100 NE8       30.28F FOG     WCI  34
TALLULAH       CLOUDY    44  43  96 N7        30.27S FOG

$$




USA.gov is the U.S. government's official web portal to all federal, state and local government web resources and services.